Regional Weather Roundup
Issued by NWS

Home | Current Version | Previous Version | Text Only | Print | Product List | Glossary On
Versions: 1 2 3 4 5 6 7 8 9 10 11 12 13 14 15 16 17 18 19 20 21 22 23 24 25 26 27 28 29 30 31 32 33 34 35 36 37 38 39 40 41 42 43 44 45 46 47 48 49 50
000
ASHW40 PHFO 280443
RWRHI

WEATHER ROUNDUP FOR HAWAII
NATIONAL WEATHER SERVICE HONOLULU HI
600 PM HST TUE JUN 27 2017

THIS IS AN AUTOMATED REPORT THAT HAS NOT BEEN QUALITY CONTROLLED.

NOTE..."FAIR" INDICATES FEW OR NO CLOUDS BELOW 12,000 FEET WITH NO
SIGNIFICANT WEATHER AND/OR OBSTRUCTIONS TO VISIBILITY.

* - THESE SITES REPORT LIMITED FIELDS

HIZ001>004-280500-
KAUAI-NIIHAU-

CITY           SKY/WX    TMP DP  RH WIND       PRES   REMARKS
LIHUE APT      PTSUNNY   82  67  60 NE14      30.09R
PORT ALLEN*    NOT AVBL
POIPU*         NOT AVBL
PRINCEVILLE*   NOT AVBL
KOKOLE POINT*  NOT AVBL
MOLOAA DAIRY*    N/A     81  46  30 E7G14       N/A
WAIMEA HTS*      N/A     81  64  57 SE3G12      N/A
PUU OPAE*      NOT AVBL
PUU LUA*       NOT AVBL
MAKAHA RIDGE*    N/A     79  66  65 SW3         N/A
$$

HIZ005>011-280500-
OAHU-

CITY           SKY/WX    TMP DP  RH WIND       PRES   REMARKS
HONOLULU       PTSUNNY   81  63  54 NE18G25   30.05R
KALAELOA       MOSUNNY   82  64  54 NE9G16    30.06R
KANEOHE MCB    NOT AVBL
WHEELER FIELD  PTSUNNY   78  66  66 E9G16     30.06R
BELLOWS*       NOT AVBL
KAHUKU*        NOT AVBL
WHEELER*       NOT AVBL
WAIANAE HARBOR NOT AVBL
DILLINGHAM*      N/A     82  66  57 SW8G18      N/A
KAHUKU TRN*      N/A     84  73  70 W8G23       N/A  HX  91
KAWAILOA*        N/A     73  64  73 E9G17       N/A
KII*             N/A     81  70  69 E17G23      N/A
MAKUA RANGE*     N/A     88  70  55 SW3G16      N/A  HX  92
OAHU FOREST NW   N/A     72  64  78 SE5G18      N/A
SCHOFIELD BRK*   N/A     66  55  68 MISG        N/A
SCHOFIELD S*   NOT AVBL
WAIANAE VLY*     N/A     84  72  65 NW2G12      N/A
KUAOKALA*        N/A     75  64  69 NE18G26     N/A
HONOULIUULI*   NOT AVBL
MOKUOLOE IS*   NOT AVBL
PALEHUA*         N/A     70  63  78 NE6G17      N/A
WAIAWA PHB*    NOT AVBL
$$

HIZ012>013-280500-
MOLOKAI-

CITY           SKY/WX    TMP DP  RH WIND       PRES   REMARKS
MOLOKAI AIRPT  MOSUNNY   82  67  60 NE16G22   30.06R
KALAUPAPA      NOT AVBL
MAKAPULAPAI*     N/A     81  68  65 E17G26      N/A
MOLOKAI 1*     NOT AVBL
PUU ALII*        N/A     68  63  84 NE2G9       N/A
$$

HIZ016-280500-
KAHOOLAWE-

CITY           SKY/WX    TMP DP  RH WIND       PRES   REMARKS
KAHOOLAWE*     NOT AVBL
HAKIOAWA*        N/A     76  67  75 MISG      30.46S
HONOKANAIA*      N/A     84  67  56 NE15G31   29.97S
KANELOA*         N/A     79  66  65 E20G32      N/A
KEALIALALO*    NOT AVBL
LUA MAKIKA*    NOT AVBL
$$

HIZ014>015-280500-
LANAI-

CITY           SKY/WX    TMP DP  RH WIND       PRES   REMARKS
LANAI CITY     PTSUNNY   78  66  66 N8        30.11R
LANAI 1*       NOT AVBL
$$

HIZ017>028-280500-
MAUI-

CITY           SKY/WX    TMP DP  RH WIND       PRES   REMARKS
KAHULUI        MOSUNNY   82  66  58 NE21G31   30.01R
KAPALUA-W MAUI NOT AVBL
HANA AIRPORT   CLOUDY    79  66  65 SE1       30.11R
HANA*            N/A     81 N/A N/A E9          N/A
HALEAKALA SUMM   N/A     48  18  29 E23G36      N/A
MAALAEA BAY*   NOT AVBL
HALEAKALA*     NOT AVBL
KAUPO GAP*     NOT AVBL
KULA 1*          N/A     63  58  84 W2G8        N/A
$$

HIZ023>026-280500-
BIG ISLAND OF HAWAII COAST AND LOWER SLOPES-

CITY           SKY/WX    TMP DP  RH WIND       PRES   REMARKS
KAILUA KONA    PTSUNNY   82  71  69 W9        30.00S
HILO           LGT RAIN  75  72  88 CALM      30.07R
HONOKAA*         N/A     72 N/A N/A VRB1        N/A
KAWAIHAE MWT*    N/A     82 N/A N/A W5          N/A
KAWAIHAE*        N/A     82 N/A N/A E9        30.00F
SOUTH POINT*     N/A     75 N/A N/A VRB21G32    N/A
UPOLU AIRPORT* NOT AVBL
KAMUELA*         N/A     66  63  88 NE14      30.15R
HAKALAU*         N/A     65  54  67 S5G10       N/A
KALOKO-HONOKO*   N/A     81  70  69 W6          N/A
PALI 2*          N/A    N/A N/A N/A SW17G24     N/A
KEALAKOMO*       N/A     84  66  54 NE17G24     N/A
KAUPULEHU*       N/A     75  68  78 S2G12       N/A
KAPAPALA*        N/A     73  68  83 SE6G17      N/A
LOWER KAHUKU*    N/A     64  63  94 NE3G13      N/A
PUHE CS*         N/A     82  64  54 SW5G18      N/A
PUHO CS*         N/A     83  66  56 NW5G12      N/A
PTA KEAMUKU*   NOT AVBL
WAIKOLOA*        N/A     77  63  61 E18G29      N/A
$$

HIZ027>028-280500-
BIG ISLAND OF HAWAII INTERIOR AND SUMMMITS-

CITY           SKY/WX    TMP DP  RH WIND       PRES   REMARKS
BRADSHAW FIELD SUNNY     67  55  66 W3G17     30.36R
MK VISITOR CEN   N/A     57 -17   4 E9          N/A
MAUNA KEA*       N/A     39 -11  11 NE25        N/A  WCI  28
MAUNA LOA*       N/A     55  -4   8 MISG        N/A
MAUNA LOA 1*   NOT AVBL
PTA KIPUKA*      N/A     66  55  68 NW5G12      N/A
PTA RANGE 17*    N/A     73  66  78 W9          N/A
PTA WEST*        N/A     68  61  77 W10         N/A
NENE CABIN*      N/A     57  52  82 E6G12       N/A
AHUMOA*          N/A     60  58  92 S2          N/A
PTA PORTABLE*  NOT AVBL
PUU MALI*        N/A     70 N/A N/A NE16G25     N/A
$$

HIC003-280500-
NORTHWEST ISLANDS-

CITY           SKY/WX    TMP DP  RH WIND       PRES   REMARKS
MIDWAY ISLAND  MOSUNNY   79  68  69 NE9       30.13S
MIDWAY NOS*      N/A     79 N/A N/A MISG      30.11S
FRENCH FRIGATE NOT AVBL
$$

PHZ110>124-180-280500-
BUOY REPORTS

STATION/POSITION TIME  TEMP    WIND        PRES    WAVE   SWELL
                       AIR SEA DIR/SP/G            HT/PER HT/DIR
                 (UTC) (F)     (DEG/KT/KT) (MB)    (FT/S) (FT/D)
BUOY 51001       0420   80 81   80/ 12/ 14 1018.6
BUOY 51101       0350   80 81  100/ 12/ 14 1019.1F   6/10   5/ 80
BUOY 51100       NOT AVBL
BUOY 51002       0420   79 79   70/ 16/ 23 1014.6
BUOY 51003       0350   80 80   50/ 16/ 17 1015.5F   7/ 8   5/100
BUOY 51004       0350      79   60/ 16/ 19 1015.6R   8/11   5/ 70
BARBERS PT BUOY  NOT AVBL
WAIMEA BAY BUOY  0402      78                N/A     4/11   2/ 30
KAILUA BAY BUOY  0404      80                N/A     7/ 7   2/ 70
LANAI BUOY       NOT AVBL
BARBERS PT 2     NOT AVBL
PAUWELA MAUI     0409      79                N/A     6/10   2/ 40
HILO             0427      79                N/A     7/11   3/ 40
KANEOHE BAY BUOY 0425      79                N/A     5/11   2/ 60
HANALEI KAUAI    0422      80                N/A     5/11   2/ 50
KAHULUI HARBOR   0418           60/ 17/ 25   N/A
HONOLULU HARBOR  0418   81 81   70/  5/ 10 1018.5
KILO NALU        NOT AVBL
HILO HARBOR      0418           20/  3/  4   N/A
MOKUOLOE         0336   81 83   90/  9/ 14 1018.2R
NAWILIWILI       0418   80      40/ 10/ 15 1018.4
WHOTS BUOY       NOT AVBL
BUOY 51028       NOT AVBL
$$

......................KEY........................................
  SKY/WX - SKY CONDITIONS/PRESENT WEATHER
  TMP    - TEMPERATURE IN FAHRENHEIT
  DWPT   - DEWPOINT IN FAHRENHEIT
  RH     - RELATIVE HUMIDITY IN PERCENT
  WIND   - DIRECTION AND SPEED /MPH FOR ISLANDS...KTS FOR BUOYS/
  PRES   - MEAN SEA LEVEL PRESSURE IN INCHES OF HG
  VSB    - VISIBILITY IN MILES
  HX     - HEAT INDEX
  WCI    - WIND CHILL INDEX
  VRB    - VARIABLE WIND DIRECTION
  N/A    - NOT AVAILABLE



USA.gov is the U.S. government's official web portal to all federal, state and local government web resources and services.